, AZ

(GMT )
Fort Huachuca

Weather History for KALK - November, 2012

Change the Weather History Date:

Friday, November 16, 2012

  Actual Average Record
Temperature  
Mean Temperature 58 °F -  
Max Temperature 68 °F - - ()
Min Temperature 48 °F - - ()
Degree Days  
Heating Degree Days 7    
Growing Degree Days 8 (Base 50)    
Moisture  
Dew Point 26 °F    
Average Humidity 29    
Maximum Humidity 43    
Minimum Humidity 21    
Precipitation  
Precipitation 0.00 in - - ()
Sea Level Pressure  
Sea Level Pressure 30.00 in    
Wind  
Wind Speed 4 mph (WSW)    
Max Wind Speed 10 mph    
Max Gust Speed -    
Averages and records for this station are not official NWS values.
T = Trace of Precipitation, MM = Missing Value Source: NWS Daily Summary

Daily Weather History Graph

Daily Weather History Graph

Search for Another Location

Airport or City:

Trip Planner

Search our weather history database for the weather conditions in past years. The results will help you decide how hot, cold, wet, or windy it might be!

Date:

Astronomy

Nov. 16, 2012 Rise Set
Actual Time 6:51 AM MST 5:21 PM MST
Civil Twilight 6:25 AM MST 5:47 PM MST
Nautical Twilight 5:55 AM MST 6:17 PM MST
Astronomical Twilight 5:26 AM MST 6:46 PM MST
Moon 9:45 AM MST (11/16) 8:27 PM MST (11/16)
Length of Visible Light 11h 22m
Length of Day
10h 30m
Waxing Crescent, 12% of the Moon is Illuminated
Nov 16
Waxing Crescent
Nov 20
First Quarter
Nov 28
Full
Dec 6
Last Quarter
Dec 13
New

Hourly Weather History & Observations

Time (MST) Temp. Dew Point Humidity Pressure Visibility Wind Dir Wind Speed Gust Speed Precip Events Conditions
12:56 AM 59.0 °F 21.9 °F 24% 29.98 in - SW 3.5 mph - N/A   Overcast
1:56 AM 57.9 °F 21.9 °F 25% 29.97 in - Calm Calm - N/A   Mostly Cloudy
2:56 AM 57.0 °F 23.0 °F 27% 29.97 in - Calm Calm - N/A   Clear
3:56 AM 57.0 °F 23.0 °F 27% 29.96 in - Calm Calm - N/A   Clear
4:56 AM 57.9 °F 23.0 °F 26% 29.96 in - Calm Calm - N/A   Clear
5:56 AM 53.1 °F 25.0 °F 34% 29.99 in - WSW 4.6 mph - N/A   Clear
6:56 AM 54.0 °F 23.0 °F 30% 29.99 in - Calm Calm - N/A   Clear
7:56 AM 53.1 °F 27.0 °F 37% 30.02 in - Calm Calm - N/A   Clear
8:56 AM 64.0 °F 23.0 °F 21% 30.01 in - Calm Calm - N/A   Clear
9:56 AM 66.9 °F 30.0 °F 25% 30.01 in - WSW 8.1 mph - N/A   Clear
10:56 AM 66.9 °F 28.0 °F 23% 30.02 in - SW 9.2 mph - N/A   Partly Cloudy
11:56 AM 68.0 °F 27.0 °F 21% 30.00 in - West 10.4 mph - N/A   Unknown
12:56 PM - - N/A% - - North - - N/A   Unknown
1:56 PM 66.9 °F 32.0 °F 27% 29.97 in - West 3.5 mph - N/A   Partly Cloudy
3:56 PM 68.0 °F 30.0 °F 24% 29.97 in - West 10.4 mph - N/A   Overcast
4:56 PM 66.9 °F 28.9 °F 24% 29.97 in - West 10.4 mph - N/A   Scattered Clouds
5:56 PM 60.1 °F 21.9 °F 23% 30.01 in - SSW 3.5 mph - N/A   Partly Cloudy
6:56 PM 57.0 °F 21.9 °F 26% 30.03 in - SW 9.2 mph - N/A   Clear
7:56 PM 55.9 °F 21.9 °F 27% 30.04 in - SW 9.2 mph - N/A   Clear
8:56 PM 53.1 °F 23.0 °F 31% 30.03 in - WSW 8.1 mph - N/A   Clear
9:56 PM 48.9 °F 27.0 °F 43% 30.04 in - West 8.1 mph - N/A   Clear
10:56 PM 53.1 °F 30.9 °F 43% 30.02 in - SW 3.5 mph - N/A   Clear
11:56 PM 54.0 °F 32.0 °F 43% 30.01 in - SW 8.1 mph - N/A   Clear